Time,TemperatureF,DewpointF,PressureIn,WindDirection,WindDirectionDegrees,WindSpeedMPH,WindSpeedGustMPH,Humidity,HourlyPrecipIn,Conditions,Clouds,dailyrainin,SoftwareType,DateUTC
2013-01-13 00:00:00,14.4,-3.1,30.30,North,355,0.0,0.0,45,0.00,,,0.00,Wunderground v.1.15,2013-01-13 06:00:00,
2013-01-13 00:06:00,14.6,-3.9,30.31,North,355,0.0,0.0,43,0.00,,,0.00,Wunderground v.1.15,2013-01-13 06:06:00,
2013-01-13 00:11:00,14.5,-4.0,30.31,North,355,0.0,0.0,43,0.00,,,0.00,Wunderground v.1.15,2013-01-13 06:11:00,
2013-01-13 00:17:00,14.3,-4.6,30.31,North,355,0.0,1.0,42,0.00,,,0.00,Wunderground v.1.15,2013-01-13 06:17:00,
2013-01-13 00:22:00,13.9,-5.0,30.31,North,355,1.0,3.0,42,0.00,,,0.00,Wunderground v.1.15,2013-01-13 06:22:00,
2013-01-13 00:28:00,13.7,-4.2,30.31,North,355,2.0,3.0,44,0.00,,,0.00,Wunderground v.1.15,2013-01-13 06:28:00,
2013-01-13 00:33:00,13.6,-4.3,30.32,North,355,2.0,2.0,44,0.00,,,0.00,Wunderground v.1.15,2013-01-13 06:33:00,
2013-01-13 00:39:00,13.5,-3.9,30.32,North,355,1.0,2.0,45,0.00,,,0.00,Wunderground v.1.15,2013-01-13 06:39:00,
2013-01-13 00:44:00,13.5,-3.9,30.32,North,355,1.0,2.0,45,0.00,,,0.00,Wunderground v.1.15,2013-01-13 06:44:00,
2013-01-13 00:50:00,13.4,-3.6,30.32,North,355,2.0,3.0,46,0.00,,,0.00,Wunderground v.1.15,2013-01-13 06:50:00,
2013-01-13 00:55:00,13.4,-3.6,30.32,North,355,2.0,3.0,46,0.00,,,0.00,Wunderground v.1.15,2013-01-13 06:55:00,
2013-01-13 01:00:00,13.4,-3.1,30.32,North,355,3.0,4.0,47,0.00,,,0.00,Wunderground v.1.15,2013-01-13 07:00:00,
2013-01-13 01:06:00,13.1,-3.4,30.32,North,355,3.0,4.0,47,0.00,,,0.00,Wunderground v.1.15,2013-01-13 07:06:00,
2013-01-13 01:11:00,12.9,-3.1,30.33,North,355,3.0,5.0,48,0.00,,,0.00,Wunderground v.1.15,2013-01-13 07:11:00,
2013-01-13 01:17:00,12.9,-3.1,30.33,North,355,4.0,5.0,48,0.00,,,0.00,Wunderground v.1.15,2013-01-13 07:17:00,
2013-01-13 01:22:00,12.6,-3.4,30.33,North,355,4.0,6.0,48,0.00,,,0.00,Wunderground v.1.15,2013-01-13 07:22:00,
2013-01-13 01:28:00,12.3,-3.7,30.33,North,355,5.0,8.0,48,0.00,,,0.00,Wunderground v.1.15,2013-01-13 07:28:00,
2013-01-13 01:34:00,12.3,-3.3,30.33,North,355,5.0,5.0,49,0.00,,,0.00,Wunderground v.1.15,2013-01-13 07:34:00,
2013-01-13 01:39:00,12.3,-2.8,30.33,North,355,4.0,5.0,50,0.00,,,0.00,Wunderground v.1.15,2013-01-13 07:39:00,
2013-01-13 01:45:00,12.3,-2.4,30.34,North,355,4.0,6.0,51,0.00,,,0.00,Wunderground v.1.15,2013-01-13 07:45:00,
2013-01-13 01:50:00,12.4,-2.3,30.34,North,355,4.0,5.0,51,0.00,,,0.00,Wunderground v.1.15,2013-01-13 07:50:00,
2013-01-13 01:56:00,12.6,-1.7,30.34,North,355,4.0,6.0,52,0.00,,,0.00,Wunderground v.1.15,2013-01-13 07:56:00,
2013-01-13 02:02:00,13.0,-1.4,30.34,North,355,4.0,5.0,52,0.00,,,0.00,Wunderground v.1.15,2013-01-13 08:02:00,
2013-01-13 02:08:00,13.1,-1.3,30.34,North,355,4.0,5.0,52,0.00,,,0.00,Wunderground v.1.15,2013-01-13 08:08:00,
2013-01-13 02:14:00,13.0,-1.8,30.35,North,355,4.0,4.0,51,0.00,,,0.00,Wunderground v.1.15,2013-01-13 08:14:00,
2013-01-13 02:19:00,12.4,-2.3,30.35,North,355,4.0,5.0,51,0.00,,,0.00,Wunderground v.1.15,2013-01-13 08:19:00,
2013-01-13 02:25:00,11.9,-2.4,30.35,North,355,4.0,5.0,52,0.00,,,0.00,Wunderground v.1.15,2013-01-13 08:25:00,
2013-01-13 02:30:00,11.8,-2.5,30.35,North,355,4.0,5.0,52,0.00,,,0.00,Wunderground v.1.15,2013-01-13 08:30:00,
2013-01-13 02:36:00,11.5,-2.8,30.35,North,355,4.0,8.0,52,0.00,,,0.00,Wunderground v.1.15,2013-01-13 08:36:00,
2013-01-13 02:41:00,11.4,-2.4,30.35,North,355,5.0,8.0,53,0.00,,,0.00,Wunderground v.1.15,2013-01-13 08:41:00,
2013-01-13 02:47:00,11.2,-2.6,30.35,North,355,5.0,8.0,53,0.00,,,0.00,Wunderground v.1.15,2013-01-13 08:47:00,
2013-01-13 02:52:00,11.1,-2.3,30.35,North,355,5.0,8.0,54,0.00,,,0.00,Wunderground v.1.15,2013-01-13 08:52:00,
2013-01-13 02:58:00,11.0,-2.4,30.35,North,355,5.0,8.0,54,0.00,,,0.00,Wunderground v.1.15,2013-01-13 08:58:00,
2013-01-13 03:04:00,10.5,-2.9,30.35,North,355,5.0,5.0,54,0.00,,,0.00,Wunderground v.1.15,2013-01-13 09:04:00,
2013-01-13 03:09:00,10.0,-3.4,30.36,North,355,5.0,5.0,54,0.00,,,0.00,Wunderground v.1.15,2013-01-13 09:09:00,
2013-01-13 03:15:00,9.3,-3.6,30.36,North,355,4.0,5.0,55,0.00,,,0.00,Wunderground v.1.15,2013-01-13 09:15:00,
2013-01-13 03:20:00,9.1,-3.4,30.36,North,355,4.0,4.0,56,0.00,,,0.00,Wunderground v.1.15,2013-01-13 09:20:00,
2013-01-13 03:26:00,9.2,-3.3,30.36,North,355,3.0,4.0,56,0.00,,,0.00,Wunderground v.1.15,2013-01-13 09:26:00,
2013-01-13 03:32:00,9.0,-3.5,30.36,North,355,1.0,6.0,56,0.00,,,0.00,Wunderground v.1.15,2013-01-13 09:32:00,
2013-01-13 03:37:00,8.9,-3.3,30.36,North,355,0.0,6.0,57,0.00,,,0.00,Wunderground v.1.15,2013-01-13 09:37:00,
2013-01-13 03:43:00,8.9,-3.6,30.36,North,355,0.0,6.0,56,0.00,,,0.00,Wunderground v.1.15,2013-01-13 09:43:00,
2013-01-13 03:48:00,8.9,-3.3,30.36,North,355,0.0,6.0,57,0.00,,,0.00,Wunderground v.1.15,2013-01-13 09:48:00,
2013-01-13 03:54:00,8.9,-3.3,30.36,North,355,1.0,6.0,57,0.00,,,0.00,Wunderground v.1.15,2013-01-13 09:54:00,
2013-01-13 03:59:00,8.6,-3.5,30.36,North,355,2.0,6.0,57,0.00,,,0.00,Wunderground v.1.15,2013-01-13 09:59:00,
2013-01-13 04:05:00,9.0,-2.8,30.36,North,355,2.0,2.0,58,0.00,,,0.00,Wunderground v.1.15,2013-01-13 10:05:00,
2013-01-13 04:11:00,9.3,-2.5,30.36,North,355,2.0,2.0,58,0.00,,,0.00,Wunderground v.1.15,2013-01-13 10:11:00,
2013-01-13 04:16:00,9.2,-3.0,30.36,North,355,1.0,2.0,57,0.00,,,0.00,Wunderground v.1.15,2013-01-13 10:16:00,
2013-01-13 04:22:00,9.0,-2.8,30.36,North,355,2.0,3.0,58,0.00,,,0.00,Wunderground v.1.15,2013-01-13 10:22:00,
2013-01-13 04:27:00,8.9,-2.9,30.36,North,355,3.0,3.0,58,0.00,,,0.00,Wunderground v.1.15,2013-01-13 10:27:00,
2013-01-13 04:33:00,8.8,-2.6,30.36,North,355,3.0,4.0,59,0.00,,,0.00,Wunderground v.1.15,2013-01-13 10:33:00,
2013-01-13 04:38:00,9.0,-2.1,30.36,North,355,3.0,4.0,60,0.00,,,0.00,Wunderground v.1.15,2013-01-13 10:38:00,
2013-01-13 04:44:00,9.0,-2.1,30.36,North,355,2.0,3.0,60,0.00,,,0.00,Wunderground v.1.15,2013-01-13 10:44:00,
2013-01-13 04:49:00,9.1,-2.0,30.35,North,355,2.0,3.0,60,0.00,,,0.00,Wunderground v.1.15,2013-01-13 10:49:00,
2013-01-13 04:55:00,8.9,-2.5,30.35,North,355,3.0,4.0,59,0.00,,,0.00,Wunderground v.1.15,2013-01-13 10:55:00,
2013-01-13 05:00:00,8.9,-2.2,30.35,North,355,1.0,2.0,60,0.00,,,0.00,Wunderground v.1.15,2013-01-13 11:00:00,
2013-01-13 05:05:00,8.9,-2.2,30.35,North,355,1.0,3.0,60,0.00,,,0.00,Wunderground v.1.15,2013-01-13 11:05:00,
2013-01-13 05:11:00,9.0,-2.1,30.35,North,355,1.0,1.0,60,0.00,,,0.00,Wunderground v.1.15,2013-01-13 11:11:00,
2013-01-13 05:16:00,8.8,-2.3,30.35,North,355,0.0,1.0,60,0.00,,,0.00,Wunderground v.1.15,2013-01-13 11:16:00,
2013-01-13 05:22:00,8.7,-2.0,30.34,North,355,0.0,0.0,61,0.00,,,0.00,Wunderground v.1.15,2013-01-13 11:22:00,
2013-01-13 05:27:00,8.7,-2.0,30.34,North,355,0.0,0.0,61,0.00,,,0.00,Wunderground v.1.15,2013-01-13 11:27:00,
2013-01-13 05:33:00,8.6,-2.1,30.35,North,355,0.0,5.0,61,0.00,,,0.00,Wunderground v.1.15,2013-01-13 11:33:00,
2013-01-13 05:38:00,8.4,-2.7,30.35,North,355,0.0,5.0,60,0.00,,,0.00,Wunderground v.1.15,2013-01-13 11:38:00,
2013-01-13 05:44:00,7.8,-3.2,30.35,North,355,0.0,5.0,60,0.00,,,0.00,Wunderground v.1.15,2013-01-13 11:44:00,
2013-01-13 05:50:00,7.7,-2.6,30.35,North,355,0.0,5.0,62,0.00,,,0.00,Wunderground v.1.15,2013-01-13 11:50:00,
2013-01-13 05:55:00,7.7,-2.6,30.35,North,355,0.0,5.0,62,0.00,,,0.00,Wunderground v.1.15,2013-01-13 11:55:00,
2013-01-13 06:00:00,7.4,-3.3,30.35,North,355,0.0,0.0,61,0.00,,,0.00,Wunderground v.1.15,2013-01-13 12:00:00,
2013-01-13 06:06:00,7.1,-3.2,30.35,North,355,0.0,0.0,62,0.00,,,0.00,Wunderground v.1.15,2013-01-13 12:06:00,
2013-01-13 06:11:00,6.9,-3.7,30.36,North,355,0.0,1.0,61,0.00,,,0.00,Wunderground v.1.15,2013-01-13 12:11:00,
2013-01-13 06:17:00,6.7,-3.6,30.36,North,355,0.0,1.0,62,0.00,,,0.00,Wunderground v.1.15,2013-01-13 12:17:00,
2013-01-13 06:23:00,6.8,-3.1,30.36,North,355,0.0,1.0,63,0.00,,,0.00,Wunderground v.1.15,2013-01-13 12:23:00,
2013-01-13 06:29:00,6.8,-3.1,30.36,North,355,1.0,3.0,63,0.00,,,0.00,Wunderground v.1.15,2013-01-13 12:29:00,
2013-01-13 06:35:00,6.5,-3.4,30.36,North,355,2.0,3.0,63,0.00,,,0.00,Wunderground v.1.15,2013-01-13 12:35:00,
2013-01-13 06:40:00,6.8,-3.1,30.36,North,355,1.0,1.0,63,0.00,,,0.00,Wunderground v.1.15,2013-01-13 12:40:00,
2013-01-13 06:46:00,6.6,-3.7,30.36,North,355,1.0,3.0,62,0.00,,,0.00,Wunderground v.1.15,2013-01-13 12:46:00,
2013-01-13 06:51:00,6.2,-3.7,30.36,North,355,2.0,3.0,63,0.00,,,0.00,Wunderground v.1.15,2013-01-13 12:51:00,
2013-01-13 06:57:00,6.5,-3.1,30.36,North,355,1.0,3.0,64,0.00,,,0.00,Wunderground v.1.15,2013-01-13 12:57:00,
2013-01-13 07:03:00,6.6,-3.3,30.36,North,355,0.0,3.0,63,0.00,,,0.00,Wunderground v.1.15,2013-01-13 13:03:00,
2013-01-13 07:08:00,5.7,-4.5,30.37,North,355,2.0,4.0,62,0.00,,,0.00,Wunderground v.1.15,2013-01-13 13:08:00,
2013-01-13 07:14:00,5.3,-4.6,30.37,North,355,3.0,3.0,63,0.00,,,0.00,Wunderground v.1.15,2013-01-13 13:14:00,
2013-01-13 07:19:00,5.0,-4.5,30.37,North,355,3.0,3.0,64,0.00,,,0.00,Wunderground v.1.15,2013-01-13 13:19:00,
2013-01-13 07:25:00,4.9,-4.6,30.37,North,355,2.0,4.0,64,0.00,,,0.00,Wunderground v.1.15,2013-01-13 13:25:00,
2013-01-13 07:30:00,4.9,-4.6,30.37,North,355,2.0,3.0,64,0.00,,,0.00,Wunderground v.1.15,2013-01-13 13:30:00,
2013-01-13 07:36:00,5.2,-4.3,30.37,North,355,3.0,4.0,64,0.00,,,0.00,Wunderground v.1.15,2013-01-13 13:36:00,
2013-01-13 07:42:00,5.1,-4.4,30.38,North,355,2.0,3.0,64,0.00,,,0.00,Wunderground v.1.15,2013-01-13 13:42:00,
2013-01-13 07:47:00,5.3,-4.2,30.38,North,355,2.0,3.0,64,0.00,,,0.00,Wunderground v.1.15,2013-01-13 13:47:00,
2013-01-13 07:53:00,5.3,-4.6,30.38,North,355,1.0,3.0,63,0.00,,,0.00,Wunderground v.1.15,2013-01-13 13:53:00,
2013-01-13 07:58:00,5.2,-4.7,30.38,North,355,1.0,3.0,63,0.00,,,0.00,Wunderground v.1.15,2013-01-13 13:58:00,
2013-01-13 08:04:00,5.2,-5.0,30.38,North,355,0.0,0.0,62,0.00,,,0.00,Wunderground v.1.15,2013-01-13 14:04:00,
2013-01-13 08:10:00,5.3,-4.9,30.39,North,355,0.0,0.0,62,0.00,,,0.00,Wunderground v.1.15,2013-01-13 14:10:00,
2013-01-13 08:15:00,5.4,-4.5,30.39,North,355,0.0,0.0,63,0.00,,,0.00,Wunderground v.1.15,2013-01-13 14:15:00,
2013-01-13 08:21:00,5.4,-4.8,30.39,North,355,0.0,0.0,62,0.00,,,0.00,Wunderground v.1.15,2013-01-13 14:21:00,
2013-01-13 08:26:00,5.4,-4.5,30.40,North,355,0.0,2.0,63,0.00,,,0.00,Wunderground v.1.15,2013-01-13 14:26:00,
2013-01-13 08:32:00,5.4,-4.5,30.40,North,355,0.0,5.0,63,0.00,,,0.00,Wunderground v.1.15,2013-01-13 14:32:00,
2013-01-13 08:37:00,5.6,-4.3,30.40,North,355,0.0,5.0,63,0.00,,,0.00,Wunderground v.1.15,2013-01-13 14:37:00,
2013-01-13 08:43:00,5.8,-4.4,30.40,North,355,0.0,5.0,62,0.00,,,0.00,Wunderground v.1.15,2013-01-13 14:43:00,
2013-01-13 08:48:00,6.1,-3.8,30.40,North,355,0.0,5.0,63,0.00,,,0.00,Wunderground v.1.15,2013-01-13 14:48:00,
2013-01-13 08:54:00,6.5,-3.8,30.41,North,355,0.0,5.0,62,0.00,,,0.00,Wunderground v.1.15,2013-01-13 14:54:00,
2013-01-13 09:00:00,7.0,-3.6,30.41,North,355,0.0,0.0,61,0.00,,,0.00,Wunderground v.1.15,2013-01-13 15:00:00,
2013-01-13 09:06:00,7.7,-3.3,30.41,North,355,0.0,0.0,60,0.00,,,0.00,Wunderground v.1.15,2013-01-13 15:06:00,
2013-01-13 09:12:00,8.3,-3.5,30.41,North,355,0.0,2.0,58,0.00,,,0.00,Wunderground v.1.15,2013-01-13 15:12:00,
2013-01-13 09:18:00,8.7,-3.4,30.42,North,355,1.0,2.0,57,0.00,,,0.00,Wunderground v.1.15,2013-01-13 15:18:00,
2013-01-13 09:24:00,9.2,-3.0,30.42,North,355,0.0,1.0,57,0.00,,,0.00,Wunderground v.1.15,2013-01-13 15:24:00,
2013-01-13 09:30:00,9.6,-3.3,30.42,North,355,0.0,0.0,55,0.00,,,0.00,Wunderground v.1.15,2013-01-13 15:30:00,
2013-01-13 09:35:00,10.1,-2.9,30.43,North,355,0.0,2.0,55,0.00,,,0.00,Wunderground v.1.15,2013-01-13 15:35:00,
2013-01-13 09:41:00,10.5,-3.3,30.43,North,355,1.0,2.0,53,0.00,,,0.00,Wunderground v.1.15,2013-01-13 15:41:00,
2013-01-13 09:46:00,10.7,-3.5,30.43,North,355,1.0,3.0,52,0.00,,,0.00,Wunderground v.1.15,2013-01-13 15:46:00,
2013-01-13 09:52:00,10.9,-3.7,30.43,North,355,1.0,2.0,51,0.00,,,0.00,Wunderground v.1.15,2013-01-13 15:52:00,
2013-01-13 09:58:00,11.1,-4.4,30.43,North,355,1.0,2.0,49,0.00,,,0.00,Wunderground v.1.15,2013-01-13 15:58:00,
2013-01-13 10:03:00,11.2,-4.3,30.43,North,355,1.0,2.0,49,0.00,,,0.00,Wunderground v.1.15,2013-01-13 16:03:00,
2013-01-13 10:09:00,11.8,-4.2,30.43,North,355,1.0,3.0,48,0.00,,,0.00,Wunderground v.1.15,2013-01-13 16:09:00,
2013-01-13 10:14:00,12.3,-4.1,30.43,North,355,1.0,4.0,47,0.00,,,0.00,Wunderground v.1.15,2013-01-13 16:14:00,
2013-01-13 10:20:00,12.9,-3.6,30.43,North,11,2.0,5.0,47,0.00,,,0.00,Wunderground v.1.15,2013-01-13 16:20:00,
2013-01-13 10:25:00,13.2,-3.7,30.43,NNE,13,3.0,5.0,46,0.00,,,0.00,Wunderground v.1.15,2013-01-13 16:25:00,
2013-01-13 10:31:00,13.8,-3.7,30.43,NE,34,3.0,6.0,45,0.00,,,0.00,Wunderground v.1.15,2013-01-13 16:31:00,
2013-01-13 10:37:00,14.6,-3.4,30.43,NE,48,3.0,6.0,44,0.00,,,0.00,Wunderground v.1.15,2013-01-13 16:37:00,
2013-01-13 10:42:00,15.4,-3.1,30.43,NE,49,3.0,5.0,43,0.00,,,0.00,Wunderground v.1.15,2013-01-13 16:42:00,
2013-01-13 10:48:00,15.5,-3.5,30.43,NE,49,3.0,5.0,42,0.00,,,0.00,Wunderground v.1.15,2013-01-13 16:48:00,
2013-01-13 10:53:00,16.1,-3.0,30.42,NE,50,3.0,4.0,42,0.00,,,0.00,Wunderground v.1.15,2013-01-13 16:53:00,
2013-01-13 10:59:00,16.6,-3.1,30.43,NE,53,3.0,5.0,41,0.00,,,0.00,Wunderground v.1.15,2013-01-13 16:59:00,
2013-01-13 11:05:00,16.8,-2.9,30.42,NE,56,4.0,5.0,41,0.00,,,0.00,Wunderground v.1.15,2013-01-13 17:05:00,
2013-01-13 11:10:00,17.2,-2.5,30.42,NE,56,4.0,4.0,41,0.00,,,0.00,Wunderground v.1.15,2013-01-13 17:10:00,
2013-01-13 11:16:00,17.8,-2.5,30.42,ENE,57,3.0,4.0,40,0.00,,,0.00,Wunderground v.1.15,2013-01-13 17:16:00,
2013-01-13 11:21:00,18.2,-2.1,30.42,ENE,57,2.0,3.0,40,0.00,,,0.00,Wunderground v.1.15,2013-01-13 17:21:00,
2013-01-13 11:27:00,18.9,-1.5,30.42,ENE,57,2.0,4.0,40,0.00,,,0.00,Wunderground v.1.15,2013-01-13 17:27:00,
2013-01-13 11:32:00,19.1,-1.3,30.42,ENE,57,1.0,6.0,40,0.00,,,0.00,Wunderground v.1.15,2013-01-13 17:32:00,
2013-01-13 11:38:00,20.1,-0.4,30.41,ENE,57,0.0,6.0,40,0.00,,,0.00,Wunderground v.1.15,2013-01-13 17:38:00,
2013-01-13 11:43:00,21.1,0.0,30.41,ENE,57,0.0,6.0,39,0.00,,,0.00,Wunderground v.1.15,2013-01-13 17:43:00,
2013-01-13 11:49:00,22.2,0.4,30.40,ENE,57,0.0,6.0,38,0.00,,,0.00,Wunderground v.1.15,2013-01-13 17:49:00,
2013-01-13 11:55:00,22.4,0.0,30.39,ENE,57,1.0,6.0,37,0.00,,,0.00,Wunderground v.1.15,2013-01-13 17:55:00,
2013-01-13 12:00:00,22.7,0.9,30.39,ENE,57,1.0,1.0,38,0.00,,,0.00,Wunderground v.1.15,2013-01-13 18:00:00,
2013-01-13 12:06:00,23.4,1.5,30.39,ENE,57,0.0,4.0,38,0.00,,,0.00,Wunderground v.1.15,2013-01-13 18:06:00,
2013-01-13 12:11:00,24.5,1.9,30.39,ENE,57,1.0,4.0,37,0.00,,,0.00,Wunderground v.1.15,2013-01-13 18:11:00,
2013-01-13 12:17:00,23.9,1.4,30.38,ENE,57,1.0,4.0,37,0.00,,,0.00,Wunderground v.1.15,2013-01-13 18:17:00,
2013-01-13 12:22:00,24.2,1.6,30.37,SE,124,1.0,2.0,37,0.00,,,0.00,Wunderground v.1.15,2013-01-13 18:22:00,
2013-01-13 12:28:00,25.2,2.5,30.37,SE,146,2.0,2.0,37,0.00,,,0.00,Wunderground v.1.15,2013-01-13 18:28:00,
2013-01-13 12:33:00,25.4,2.7,30.36,SSE,168,2.0,7.0,37,0.00,,,0.00,Wunderground v.1.15,2013-01-13 18:33:00,
2013-01-13 12:39:00,25.9,2.6,30.35,South,169,2.0,7.0,36,0.00,,,0.00,Wunderground v.1.15,2013-01-13 18:39:00,
2013-01-13 12:44:00,25.6,2.3,30.35,South,170,3.0,7.0,36,0.00,,,0.00,Wunderground v.1.15,2013-01-13 18:44:00,
2013-01-13 12:50:00,26.2,2.8,30.34,South,170,2.0,2.0,36,0.00,,,0.00,Wunderground v.1.15,2013-01-13 18:50:00,
2013-01-13 12:56:00,27.4,3.9,30.34,WSW,257,2.0,7.0,36,0.00,,,0.00,Wunderground v.1.15,2013-01-13 18:56:00,
2013-01-13 13:01:00,28.0,3.8,30.34,WSW,255,2.0,2.0,35,0.00,,,0.00,Wunderground v.1.15,2013-01-13 19:01:00,
2013-01-13 13:07:00,28.4,4.2,30.33,South,187,2.0,6.0,35,0.00,,,0.00,Wunderground v.1.15,2013-01-13 19:07:00,
2013-01-13 13:12:00,28.9,4.0,30.32,South,187,2.0,4.0,34,0.00,,,0.00,Wunderground v.1.15,2013-01-13 19:12:00,
2013-01-13 13:18:00,28.7,3.2,30.32,SSW,192,2.0,6.0,33,0.00,,,0.00,Wunderground v.1.15,2013-01-13 19:18:00,
2013-01-13 13:24:00,28.8,3.9,30.32,South,189,2.0,5.0,34,0.00,,,0.00,Wunderground v.1.15,2013-01-13 19:24:00,
2013-01-13 13:30:00,29.7,4.1,30.31,SSW,203,2.0,5.0,33,0.00,,,0.00,Wunderground v.1.15,2013-01-13 19:30:00,
2013-01-13 13:36:00,29.6,3.3,30.30,SW,227,3.0,8.0,32,0.00,,,0.00,Wunderground v.1.15,2013-01-13 19:36:00,
2013-01-13 13:41:00,29.6,3.3,30.30,SSW,212,3.0,8.0,32,0.00,,,0.00,Wunderground v.1.15,2013-01-13 19:41:00,
2013-01-13 13:47:00,29.0,3.4,30.30,SSW,194,3.0,8.0,33,0.00,,,0.00,Wunderground v.1.15,2013-01-13 19:47:00,
2013-01-13 13:52:00,29.4,3.1,30.30,SW,216,4.0,8.0,32,0.00,,,0.00,Wunderground v.1.15,2013-01-13 19:52:00,
2013-01-13 13:58:00,29.6,3.3,30.29,SW,219,4.0,8.0,32,0.00,,,0.00,Wunderground v.1.15,2013-01-13 19:58:00,
2013-01-13 14:04:00,30.0,3.7,30.29,SW,219,2.0,4.0,32,0.00,,,0.00,Wunderground v.1.15,2013-01-13 20:04:00,
2013-01-13 14:09:00,29.5,2.5,30.29,SSW,207,3.0,10.0,31,0.00,,,0.00,Wunderground v.1.15,2013-01-13 20:09:00,
2013-01-13 14:15:00,29.6,3.3,30.28,SSW,209,3.0,4.0,32,0.00,,,0.00,Wunderground v.1.15,2013-01-13 20:15:00,
2013-01-13 14:20:00,30.2,3.1,30.28,SW,228,2.0,3.0,31,0.00,,,0.00,Wunderground v.1.15,2013-01-13 20:20:00,
2013-01-13 14:26:00,30.1,3.1,30.28,SSW,211,4.0,7.0,31,0.00,,,0.00,Wunderground v.1.15,2013-01-13 20:26:00,
2013-01-13 14:31:00,30.6,2.8,30.28,SW,223,4.0,8.0,30,0.00,,,0.00,Wunderground v.1.15,2013-01-13 20:31:00,
2013-01-13 14:37:00,31.0,3.1,30.28,WSW,242,3.0,8.0,30,0.00,,,0.00,Wunderground v.1.15,2013-01-13 20:37:00,
2013-01-13 14:42:00,31.0,1.6,30.27,SSW,200,5.0,8.0,28,0.00,,,0.00,Wunderground v.1.15,2013-01-13 20:42:00,